Погода в Починках

Россия / Нижегородская область     54°41′51″N   44°51′43″E
темп.,
°C
ветер,
м/с
пор.,
м/с
влажн.,
%
обл.,
%
осадки,
мм/ч
давл.,
гПа
погр.,
м
8 марта, пн
пн800:00−3юз81595100 0.9 993869
03:00−5з71289100 1.6 994535
06:00−8зюз6129388 0.1 996413
09:00−8зюз6119092 0.1 999502
12:00−5юз588872 0.0 999621
15:00−4ююз588786 0.1 999862
18:00−6сз4888100 0.8 1001383
21:00−12з489167 0.8 1005119
9 марта, вт
вт900:00−14з44950 0.0 100764
03:00−16з34973 0.0 100838
06:00−18зсз339867 0.0 101023
09:00−15зсз239671 0.0 1011142
12:00−11ссз348793 0.0 1011462
15:00−10ссз458796 0.1 1012657
18:00−14с349599 0.1 101286
21:00−17ссз489591 0.1 1015164
10 марта, ср
ср1000:00−19сз489787 0.1 1016155
03:00−20ссз489884 0.1 1017157
06:00−20ссз499695 0.1 1019308
09:00−20ссз599397 0.1 1021420
12:00−20ссз589099 0.0 1022501
15:00−19ссз598781 0.0 1023551
18:00−23ссз349314 0.0 102474
21:00−24ссз46946 0.0 102688
11 марта, чт
чт1100:00−25сз34960 0.0 102850
03:00−25сз34995 0.0 102942
06:00−26зсз349824 0.0 103054
09:00−21зсз469537 0.0 1031238
12:00−15зсз478929 0.0 1030383
15:00−12зсз578815 0.0 1030392
18:00−15зсз47920 0.0 1030112
21:00−18зсз45950 0.0 103274
12 марта, пт
пт1200:00−19зсз34940 0.0 103334
03:00−20з34970 0.0 103334
06:00−21з33970 0.0 103425
09:00−18зюз34940 0.0 1035147
12:00−13юз359014 0.0 1034336
15:00−11юз47827 0.0 1033434
18:00−16юз34900 0.0 103328
21:00−19юз34900 0.0 103452